Location: Newark
(20.1720°N, 90.0102°W)
Time: 21:23:38
(UTC+00:00)

N. Korean satellite - Visible Passes

Search period start: 16 July 2019 00:00
Search period end: 26 July 2019 00:00
Orbit: 456 x 508 km, 97.2° (Epoch: 16 July)

Date Brightness Start Highest point End Pass type
(mag) Time Alt. Az. Time Alt. Az. Time Alt. Az.
16 Jul 9.6 11:04:00 10° ENE 11:06:21 16° E 11:08:43 10° SE visible
20 Jul 9.8 10:57:34 10° ENE 10:59:20 13° E 11:01:05 10° SE visible
24 Jul 10.2 10:51:56 10° E 10:52:16 10° E 10:52:35 10° E visible
